QPF
0.00 0.00 0.00 0.00 0.00 0.00 0.00 0.01 0.00 0.00 0.00 0.00 0.00 0.01 0.03 0.03 0.02 0.02 0.01 0.01 0.00 0.01
0.00 0.00 0.00 0.00 0.00 0.00 0.00 0.00 0.00 0.00 0.00 0.00 0.00 0.00 0.01 0.03 0.02 0.02 0.02 0.02 0.01 0.00
0.00 0.00 0.00 0.00 0.00 0.00 0.00 0.00 0.00 0.00 0.00 0.00 0.00 0.00 0.01 0.03 0.02 0.02 0.01 0.01 0.01 0.00
0.00 0.00 0.00 0.00 0.00 0.00 0.00 0.00 0.00 0.00 0.00 0.00 0.00 0.00 0.01 0.02 0.01 0.01 0.01 0.01 0.01 0.00
0.00 0.00 0.00 0.00 0.00 0.00 0.00 0.00 0.00 0.00 0.00 0.00 0.01 0.00 0.01 0.01 0.01 0.01 0.01 0.01 0.01 0.01
0.00 0.00 0.00 0.00 0.00 0.00 0.00 0.00 0.00 0.00 0.00 0.00 0.00 0.00 0.00 0.00 0.00 0.00 0.00 0.00 0.01 0.02
0.00 0.00 0.00 0.00 0.00 0.00 0.00 0.00 0.00 0.00 0.00 0.00 0.01 0.00 0.00 0.00 0.00 0.00 0.00 0.00 0.00 0.01
0.00 0.00 0.00 0.00 0.00 0.00 0.00 0.00 0.00 0.00 0.00 0.00 0.01 0.02 0.01 0.00 0.00 0.00 0.00 0.00 0.00 0.00
0.00 0.00 0.00 0.00 0.00 0.00 0.00 0.00 0.00 0.00 0.00 0.00 0.01 0.01 0.01 0.00 0.00 0.00 0.00 0.00 0.01 0.00
0.00 0.00 0.00 0.00 0.00 0.00 0.00 0.00 0.00 0.00 0.00 0.01 0.01 0.00 0.00 0.00 0.00 0.00 0.00 0.00 0.01 0.01
0.00 0.00 0.00 0.00 0.00 0.00 0.00 0.00 0.00 0.00 0.00 0.00 0.01 0.00 0.00 0.00 0.00 0.00 0.00 0.00 0.00 0.01
0.00 0.00 0.00 0.00 0.00 0.00 0.00 0.00 0.00 0.00 0.00 0.00 0.00 0.00 0.00 0.00 0.00 0.00 0.00 0.00 0.00 0.01
0.00 0.00 0.00 0.00 0.00 0.00 0.00 0.00 0.00 0.00 0.00 0.00 0.00 0.00 0.00 0.00 0.00 0.00 0.00 0.00 0.00 0.00
0.00 0.00 0.00 0.00 0.00 0.00 0.00 0.00 0.00 0.00 0.00 0.00 0.00 0.00 0.00 0.00 0.00 0.00 0.00 0.00 0.00 0.00
MSLP
1020.70 1020.17 1019.68 1019.14 1019.09 1018.46 1017.52 1016.52 1015.78 1015.18 1014.46 1013.84 1013.27 1012.64 1012.00 1011.48 1011.37 1011.35 1011.58 1011.70 1011.79 1011.95
1020.77 1020.71 1020.27 1019.05 1018.46 1018.11 1017.33 1016.37 1015.66 1014.93 1014.05 1013.39 1012.96 1012.49 1011.86 1011.41 1011.11 1011.07 1011.13 1011.28 1011.30 1011.67
1021.17 1021.38 1020.51 1019.16 1018.29 1017.84 1017.27 1016.25 1015.60 1014.69 1013.63 1012.67 1012.48 1012.34 1011.79 1011.28 1011.03 1010.86 1010.93 1011.03 1011.21 1011.35
1021.46 1021.31 1020.61 1019.12 1018.46 1017.80 1017.29 1016.39 1015.53 1015.01 1013.78 1012.58 1012.41 1012.11 1011.80 1011.33 1010.88 1010.85 1010.86 1010.85 1010.90 1011.17
1021.79 1021.03 1020.42 1019.32 1018.66 1017.92 1017.19 1016.65 1015.91 1015.18 1014.48 1013.75 1013.35 1012.96 1012.46 1012.09 1011.49 1011.17 1010.96 1010.80 1010.70 1010.58
1021.79 1020.68 1020.16 1019.71 1019.10 1018.13 1017.39 1016.74 1016.31 1015.71 1015.11 1014.52 1014.03 1013.68 1013.34 1012.97 1012.66 1012.31 1011.97 1011.65 1011.26 1010.79
1021.94 1020.76 1020.26 1019.85 1019.62 1018.45 1017.69 1016.99 1016.75 1016.15 1015.61 1015.10 1014.48 1013.96 1013.72 1013.36 1012.99 1012.70 1012.48 1012.23 1011.85 1011.26
1021.85 1021.06 1020.49 1019.89 1019.60 1018.84 1018.06 1017.47 1017.08 1016.75 1016.18 1015.57 1014.89 1014.37 1014.14 1013.98 1013.78 1013.37 1012.78 1012.14 1011.81 1011.49
1021.81 1021.30 1020.82 1020.00 1019.47 1019.08 1018.65 1017.97 1017.44 1017.16 1016.60 1016.19 1015.41 1014.86 1014.41 1014.08 1013.78 1013.81 1013.40 1012.79 1012.05 1011.48
1022.04 1021.47 1021.10 1020.55 1019.73 1019.24 1018.88 1018.59 1017.92 1017.48 1017.20 1016.46 1015.98 1015.14 1014.71 1014.22 1014.05 1013.79 1013.62 1013.28 1012.50 1011.72
1022.23 1021.75 1021.31 1021.13 1020.25 1019.46 1019.10 1018.62 1018.33 1018.20 1017.68 1016.98 1016.36 1015.47 1015.05 1014.50 1014.26 1013.88 1013.64 1013.31 1013.02 1012.68
1022.46 1021.97 1021.52 1021.35 1020.60 1019.75 1019.24 1018.93 1018.42 1018.24 1018.09 1017.55 1016.90 1016.15 1015.48 1014.93 1014.46 1014.12 1013.86 1013.74 1013.35 1012.98
1022.64 1022.22 1021.83 1021.38 1020.83 1020.10 1019.50 1019.12 1018.78 1018.34 1018.08 1017.80 1017.26 1016.62 1016.14 1015.65 1015.21 1014.60 1014.13 1013.88 1013.74 1013.48
1022.69 1022.39 1022.08 1021.62 1021.07 1020.36 1019.83 1019.36 1018.87 1018.47 1018.09 1017.87 1017.57 1017.10 1016.43 1016.06 1015.69 1015.27 1014.64 1014.32 1014.06 1013.93
Thickness
5412 5400 5386 5374 5358 5347 5342 5339 5335 5333 5335 5340 5348 5357 5365 5373 5377 5380 5380 5382 5385 5387
5411 5395 5384 5378 5366 5354 5347 5344 5340 5339 5343 5347 5353 5360 5367 5373 5378 5380 5382 5383 5385 5384
5407 5391 5383 5380 5372 5361 5353 5351 5349 5349 5354 5360 5362 5363 5369 5375 5379 5382 5384 5385 5383 5382
5406 5394 5386 5383 5374 5367 5359 5356 5356 5354 5360 5368 5368 5370 5372 5377 5383 5384 5384 5383 5381 5377
5404 5399 5392 5386 5378 5371 5366 5359 5357 5357 5359 5362 5363 5366 5370 5373 5378 5380 5380 5379 5377 5375
5406 5405 5397 5388 5379 5375 5369 5363 5356 5354 5354 5357 5359 5361 5363 5364 5365 5367 5368 5367 5367 5367
5408 5407 5400 5391 5380 5378 5372 5365 5355 5348 5344 5348 5355 5359 5359 5361 5362 5361 5360 5358 5357 5358
5412 5408 5401 5395 5386 5381 5375 5367 5358 5348 5342 5347 5352 5356 5356 5354 5353 5353 5355 5357 5356 5353
5417 5411 5404 5399 5394 5386 5378 5372 5365 5357 5354 5350 5353 5354 5353 5352 5351 5346 5346 5347 5351 5352
5420 5415 5407 5401 5398 5392 5384 5376 5372 5366 5359 5358 5355 5355 5352 5350 5347 5345 5343 5341 5345 5348
5423 5417 5410 5403 5401 5398 5391 5385 5377 5369 5365 5362 5359 5360 5355 5352 5347 5344 5342 5341 5339 5338
5427 5422 5416 5407 5405 5403 5398 5391 5386 5378 5370 5365 5362 5361 5359 5356 5353 5348 5344 5339 5338 5336
5431 5426 5420 5415 5411 5408 5403 5397 5391 5386 5379 5372 5367 5365 5360 5357 5354 5351 5349 5343 5338 5334
5435 5430 5424 5420 5416 5413 5409 5403 5398 5393 5387 5380 5374 5369 5366 5361 5356 5353 5351 5347 5342 5336